sat.trackr.live / text

‹ back to catalog

STARLINK-11400 [DTC]

NORAD 63017 · 2025-032N

PAYLOAD ACTIVE UNKNOWN

§ Identity

Operator
Country
US
Launch date
2025-02-15
Launch site
AFETR
Launch vehicle
Mass (kg)
RCS (m²)

Purposes: comms

External: N2YO · Heavens-Above · Gunter

§ Orbital elements

Epoch: 2026-09-21T20:37:42.149568Z

Period
91.66 min
Inclination
43.0082°
Eccentricity
0.0004303
Mean motion
15.70955829 rev/d
Perigee alt
353.3 km
Apogee alt
359.1 km
Semi-major
6,734.3 km
B*
1.1083e-3
RAAN
93.1138°
Arg perigee
259.6020°
Mean anomaly
100.4363°
Rev number
9,306

§ Raw data

STARLINK-11400 [DTC]1 63017U 25032N   26264.85951562  .00145016  00000+0  11083-2 0  99912 63017  43.0082  93.1138 0004303 259.6020 100.4363 15.70955829 93061

JSON: /api/v1/satellites/63017 · /tle

For live sub-satellite position, see the globe view (requires WebGL).

§ Visibility from observer

Set your observer location to see the next 7 days of passes ≥ 10°. The values pass through the URL so the page stays shareable.

No JS? Fill the form by hand. The geolocation button needs JavaScript.